Location: Yucca Valley
(34.1140°N, 116.4310°W)
Time: 07:53:15
(UTC-08:00)

Daily predictions for brighter satellites

Satellite Brightness Start Highest point End
(mag) Time Altitude Azimuth Time Altitude Azimuth Time Altitude Azimuth
Cosmos 407 Rocket 4.2 17:48:37 10° SSE 17:53:13 33° E 17:57:53 10° NE
Cosmos 1992 Rocket 4.4 17:49:56 10° N 17:54:53 41° ENE 17:59:48 10° SE
ERBS 3.1 17:52:20 10° NNW 17:55:33 35° NE 17:58:44 10° ESE
Okean 2 Rocket 3.1 17:51:46 10° S 17:56:10 61° E 18:00:33 10° NNE
COSMO-SKYMED 1 2.9 17:54:55 10° N 17:59:15 75° WNW 18:03:35 10° SSW
ATLAS CENTAUR R/B 4.4 17:58:47 10° WNW 18:00:17 11° NW 18:01:46 10° NNW
FREGAT/IRIS 4.0 17:58:09 10° ESE 18:00:31 20° ENE 18:02:52 10° NNE
OAO 3 Copernicus 4.4 17:58:40 10° W 18:03:45 88° N 18:08:51 10° E
Cosmos 1697 Rocket 4.1 18:05:03 10° NW 18:10:23 44° WSW 18:15:41 10° S
Cosmos 2360 Rocket 3.9 18:09:25 10° NNE 18:12:14 14° NE 18:14:35 11° E
Cosmos 1980 Rocket 2.5 18:07:52 10° NNW 18:13:33 75° WSW 18:19:13 10° SSE
Cosmos 2151 Rocket 4.0 18:10:10 10° SSE 18:14:23 42° E 18:18:39 10° NNE
METEOR-M 4.2 18:09:31 10° SSE 18:14:46 59° ENE 18:20:01 10° N
Cosmos 1190 Rocket 3.9 18:11:38 10° S 18:16:46 69° ESE 18:21:56 10° NNE
Cosmos 1745 Rocket 4.1 18:11:01 10° S 18:17:22 86° W 18:23:42 10° N
SJ-6B 3.2 18:13:44 10° SE 18:17:34 42° ENE 18:21:21 10° N
NOAA 12 4.1 18:13:13 10° SSE 18:18:28 66° ENE 18:23:45 10° N
ALOS 3.0 18:15:21 10° SE 18:19:27 31° ENE 18:23:33 10° N
SL-8 R/B 3.8 18:15:49 10° NW 18:20:35 59° NE 18:25:07 11° ESE
Meteor 1-18 Rocket 4.2 18:17:22 10° N 18:22:54 65° E 18:28:27 10° SSE
BREEZE-M DEB (TANK) 4.1 18:15:47 10° NW 18:23:53 40° NNE 18:26:10 17° E
Cosmos 1140 Rocket 4.4 18:19:49 10° SSE 18:23:55 25° E 18:28:03 10° NE
TSX-5 4.1 18:22:34 10° S 18:25:30 29° ESE 18:27:26 16° ENE
GEOS 3 Rocket 3.8 18:20:37 10° NNE 18:25:52 78° NW 18:31:09 10° SW
Okean 1 Rocket 4.3 18:23:29 10° SE 18:26:45 20° E 18:30:02 10° NE
PSLV R/B 3.3 18:23:44 10° WNW 18:26:51 70° SSW 18:29:25 14° SE
Spot 2 Rocket 4.2 18:24:32 10° SE 18:28:55 31° ENE 18:33:19 10° N
Cosmos 1461 4.0 18:28:26 10° N 18:31:44 24° NE 18:33:03 20° E
Cosmos 1386 Rocket 4.5 18:25:47 10° S 18:31:57 87° W 18:38:03 10° N
Gbstr 26 Del rocket 3.9 18:29:01 10° S 18:32:09 23° SE 18:33:19 20° ESE
FengYun 1-2 T 4.5 18:27:14 10° SE 18:32:23 44° ENE 18:37:34 10° N
ASTRO E2 3.2 18:30:50 10° W 18:34:45 52° S 18:37:26 19° ESE
Cosmos 2292 Rocket 3.9 18:30:57 10° S 18:35:13 63° E 18:41:03 10° NNE
Cosmos 1633 3.2 18:32:12 10° SSE 18:35:33 34° E 18:38:55 10° NNE
HJ-1C 3.7 18:33:41 10° SSE 18:36:52 41° ENE 18:40:04 10° N
SL-16 R/B 2.1 18:38:20 10° NNW 18:43:59 67° ENE 18:49:37 10° SSE
Cosmos 1954 Rocket 4.0 18:40:29 10° S 18:45:31 57° ESE 18:50:38 10° NNE
Okean 1 3.2 18:46:44 10° N 18:50:48 82° E 18:54:51 10° S
Cosmos 44 Rocket 3.8 18:47:17 10° NW 18:51:55 58° WSW 18:56:28 10° SSE
Cosmos 1340 3.0 18:48:45 10° N 18:52:21 41° E 18:53:13 35° ESE
Meteor 1-13 Rocket 4.4 18:47:19 10° N 18:52:41 47° E 18:58:03 10° SSE
Tiangong 2 2.6 18:52:24 10° NW 18:54:54 23° NNE 18:54:54 23° NNE
CZ-2D R/B 4.2 18:57:59 30° NE 18:57:59 30° NE 19:00:30 10° N
CENTAUR R/B 3.7 18:49:38 10° NW 18:57:32 59° WSW 19:05:43 10° SSE
Cosmos 2322 Rocket 2.2 18:57:42 10° NNW 19:03:19 80° WSW 19:08:55 10° SSE
Resurs 01 Rocket 1.5 19:00:56 10° SSE 19:05:20 79° ENE 19:09:45 10° N
Cosmos 1536 Rocket 3.7 19:02:33 10° N 19:07:02 78° W 19:11:29 10° S
SL-19 R/B 4.2 19:04:09 10° SSE 19:09:42 86° ENE 19:15:33 10° NNW
Helios 1B rocket 2.4 19:09:40 56° E 19:09:51 56° E 19:13:55 10° S
H-2A R/B 2.4 19:09:04 46° SSE 19:10:04 77° ENE 19:13:47 10° N
Cosmos 1818 4.2 19:04:54 10° SW 19:10:14 56° WNW 19:15:36 10° NNE
GOES 2 Rocket 4.5 19:06:36 10° WSW 19:10:30 27° SSW 19:11:57 22° SSE
Cosmos 2322 4.2 19:07:18 10° N 19:12:37 38° ENE 19:12:40 38° ENE
Cosmos 44 4.0 19:15:58 10° NW 19:20:08 44° WSW 19:23:24 15° S
Meteor 2-4 Rocket 3.7 19:17:03 10° N 19:22:25 53° ENE 19:22:25 53° ENE
Meteor 1-11 Rocket 3.8 19:16:49 10° S 19:22:32 81° W 19:28:24 10° N
Cosmos 1741 Rocket 4.0 19:17:45 10° S 19:22:40 57° ESE 19:22:40 57° ESE
FENGYUN 3A 4.2 19:17:51 10° S 19:23:10 59° W 19:28:31 10° NNW
COSMOS 2428 4.3 19:18:42 10° N 19:21:04 19° NNE 19:21:04 19° NNE
Cosmos 2327 Rocket 4.5 19:18:10 10° SSE 19:24:08 56° E 19:30:16 10° NNE
Cosmos 2181 Rocket 4.0 19:18:29 10° N 19:24:45 83° W 19:31:04 10° S
DNEPR-1 R/B 3.7 19:21:52 10° NW 19:26:02 65° WSW 19:27:00 48° S
DELTA 2 R/B (1) 3.8 19:21:14 10° WNW 19:26:44 54° N 19:27:32 50° NE
Resurs 1-3 4.1 19:28:23 10° S 19:32:42 59° W 19:37:02 10° NNW
CZ-3 Stage 3 4.4 19:29:57 10° WSW 19:34:35 66° SSE 19:40:31 37° E
SL-08 ROCKET BODY 4.3 19:30:31 10° S 19:36:39 87° E 19:42:52 10° N
Cosmos 2184 Rocket 3.9 19:35:15 10° S 19:41:36 83° E 19:47:55 10° N
Cosmos 2074 Rocket 3.9 19:36:50 10° S 19:43:04 88° E 19:49:22 10° N
Cosmos 2219 3.5 19:39:54 10° SSW 19:44:22 55° S 19:44:22 55° S
Cosmos 2360 Rocket 2.3 19:51:10 10° NNW 19:56:26 72° WNW 19:56:26 72° WNW
ATLAS CENTAUR R/B 4.3 19:58:18 10° SW 20:00:09 19° SW 20:00:09 19° SW
